Flag for Germany Weather past 2 weeks in Wuppertal, North Rhine-Westphalia, Germany

Now
63 °F

Partly sunny.


Feels Like: 63 °F
Forecast: 49 / 64 °F
Wind: 6 mph from West

Location: Duesseldorf

Current Time: Sep 1, 2015 at 9:06:49 PM

Latest Report: Sep 1, 2015 at 8:20 PM


Visibility: N/A

Pressure: 30.01 "Hg

Humidity: 73%

Dew point: 54 °F

Location of WuppertalLocation

Historic Weather in Wuppertal — Graph

°F

Wuppertal temperature yesterday

Maximum temperature yesterday: 90 °F (at 3:20 PM)
Minimum temperature yesterday: 68 °F (at 5:50 AM)
Average temperature yesterday: 77 °F

Past Weeks' High & Low Weather Summary

 TemperatureHumidityPressure
High90 °F (Aug 30, 3:20 PM)100% (Aug 17, 8:20 PM)30.24 "Hg (Aug 17, 8:20 PM)
Low50 °F (Aug 19, 4:50 AM)30% (Aug 22, 5:20 PM)29.50 "Hg (Aug 24, 4:50 PM)
Average67 °F71%29.96 "Hg
* Reported Aug 17 7:20 PM — Sep 1 7:50 PM, Wuppertal, Weather by CustomWeather, © 2015

Note: Actual official high and low records may vary slightly from our data, if they occured in-between our weather recording intervals... More about our weather records

Advertising

Wuppertal weather history for previous 24 hours

 ConditionsComfort  
Time TempWeatherWind HumidityBarometerVisibility
7:50 PM
Tue, Sep 1
63 °FPassing clouds.8 mph73%29.98 "HgN/A
7:20 PM64 °FPassing clouds.8 mph73%29.98 "HgN/A
6:50 PM64 °FScattered showers. Scattered clouds.7 mph73%29.98 "HgN/A
6:20 PM64 °FScattered clouds.5 mph73%29.98 "HgN/A
5:50 PM64 °FScattered showers. Broken clouds.9 mph73%29.95 "HgN/A
5:20 PM64 °FScattered showers. Broken clouds.9 mph78%29.95 "HgN/A
4:50 PM64 °FBroken clouds.9 mph78%29.95 "HgN/A
4:20 PM64 °FBroken clouds.8 mph83%29.95 "HgN/A
3:50 PM63 °FPartly sunny.9 mph88%29.95 "HgN/A
3:20 PM61 °FPartly sunny.9 mph94%29.95 "HgN/A
2:50 PM61 °FLight rain. Broken clouds.12 mph88%29.92 "HgN/A
2:20 PM63 °FPartly sunny.10 mph88%29.92 "HgN/A
1:50 PM61 °FLight rain. Broken clouds.10 mph94%29.89 "HgN/A
1:20 PM61 °FLight rain. Partly sunny.6 mph94%29.89 "HgN/A
12:50 PM61 °FLight rain. Partly sunny.9 mph94%29.89 "Hg6 mi
12:20 PM61 °FRain. Partly sunny.8 mph94%29.89 "Hg6 mi
11:50 AM61 °FRain. Broken clouds.7 mph94%29.86 "Hg6 mi
11:20 AM61 °FRain. Broken clouds.8 mph94%29.86 "Hg6 mi
10:50 AM61 °FRain. Broken clouds.8 mph94%29.86 "Hg6 mi
10:20 AM61 °FRain. Broken clouds.8 mph94%29.86 "Hg6 mi
9:50 AM61 °FRain. Broken clouds.9 mph94%29.83 "HgN/A
9:20 AM61 °FRain. Broken clouds.12 mph94%29.83 "HgN/A
8:50 AM63 °FLight rain. Partly sunny.10 mph88%29.83 "HgN/A
8:20 AM63 °FLight rain. Broken clouds.7 mph94%29.83 "Hg5 mi
7:50 AM63 °FRain. Partly sunny.8 mph94%29.86 "Hg3 mi
7:20 AM64 °FLight rain. Partly cloudy.7 mph83%29.83 "HgN/A
6:50 AM64 °FPassing clouds.6 mph83%29.83 "HgN/A
5:20 AM64 °FPassing clouds.7 mph83%29.83 "HgN/A
4:50 AM64 °FPassing clouds.7 mph83%29.83 "HgN/A
4:20 AM66 °FPassing clouds.7 mph78%29.83 "HgN/A
3:50 AM66 °FPassing clouds.8 mph78%29.83 "HgN/A
3:20 AM66 °FPassing clouds.13 mph78%29.83 "HgN/A
2:50 AM68 °FPassing clouds.12 mph83%29.83 "HgN/A
2:20 AM68 °FPassing clouds.12 mph83%29.83 "HgN/A
1:50 AM70 °FPassing clouds.10 mph83%29.83 "HgN/A
1:20 AM70 °FPassing clouds.12 mph83%29.83 "HgN/A
12:50 AM70 °FPassing clouds.10 mph83%29.83 "HgN/A
12:20 AM70 °FPassing clouds.10 mph83%29.83 "HgN/A
11:20 PM
Mon, Aug 31
70 °FClear.9 mph83%29.83 "Hg10 mi
10:50 PM70 °FClear.8 mph83%29.83 "Hg10 mi
10:20 PM70 °FPassing clouds.9 mph83%29.83 "HgN/A
9:50 PM72 °FPassing clouds.7 mph78%29.83 "HgN/A
9:20 PM72 °FSunny.7 mph78%29.80 "Hg10 mi
Weather by CustomWeather, © 2015

See weather overviewHow to use our weather pages